TimeCET,TemperatureF,Dew PointF,Humidity,Sea Level PressureIn,VisibilityMPH,Wind Direction,Wind SpeedMPH,Gust SpeedMPH,PrecipitationIn,Events,Conditions,WindDirDegrees,DateUTC
6:00 AM,66.2,46.4,49,29.98,6.2,WSW,9.2,-,N/A,Rain,Light Rain,250,2013-03-30 05:00:00
6:30 AM,66.2,46.4,49,29.98,-9999.0,WSW,9.2,-,N/A,,Clear,250,2013-03-30 05:30:00
7:00 AM,65,48,44,29.99,19,WSW,9.2,,,Rain,Light Rain,250,2013-03-30 06:00:00
7:00 AM,66.2,48.2,52,29.98,-9999.0,WSW,9.2,-,N/A,,Clear,250,2013-03-30 06:00:00
7:30 AM,66.2,48.2,52,30.01,-9999.0,WSW,9.2,-,N/A,,Clear,250,2013-03-30 06:30:00
8:00 AM,66.2,48.2,52,30.01,-9999.0,WSW,10.4,-,N/A,,Clear,240,2013-03-30 07:00:00
8:30 AM,66.2,51.8,60,30.01,-9999.0,West,11.5,23.0,N/A,,Clear,260,2013-03-30 07:30:00
9:00 AM,66.2,53.6,64,30.04,6.2,West,10.4,-,N/A,,Partly Cloudy,260,2013-03-30 08:00:00
9:30 AM,66.2,55.4,68,30.04,6.2,West,13.8,26.5,N/A,,Scattered Clouds,260,2013-03-30 08:30:00
10:00 AM,66.2,57.2,73,30.04,6.2,West,12.7,-,N/A,,Scattered Clouds,260,2013-03-30 09:00:00
10:30 AM,68.0,57.2,68,30.04,6.2,West,13.8,-,N/A,,Scattered Clouds,260,2013-03-30 09:30:00
11:00 AM,66.2,57.2,73,30.04,6.2,WSW,15.0,-,N/A,,Scattered Clouds,250,2013-03-30 10:00:00
11:30 AM,68.0,57.2,68,30.04,6.2,West,16.1,27.6,N/A,,Scattered Clouds,260,2013-03-30 10:30:00
12:00 PM,68.0,59.0,73,30.06,6.2,West,12.7,-,N/A,,Scattered Clouds,260,2013-03-30 11:00:00
12:30 PM,66.2,59.0,78,30.06,6.2,West,13.8,-,N/A,,Scattered Clouds,260,2013-03-30 11:30:00
1:00 PM,68,59,66,30.06,19,West,13.8,,,,Scattered Clouds,260,2013-03-30 12:00:00
1:00 PM,68.0,57.2,68,30.04,6.2,West,15.0,-,N/A,,Scattered Clouds,260,2013-03-30 12:00:00
1:30 PM,68.0,59.0,73,30.04,6.2,West,16.1,-,N/A,,Scattered Clouds,260,2013-03-30 12:30:00
2:00 PM,68.0,59.0,73,30.04,6.2,West,18.4,-,N/A,,Scattered Clouds,260,2013-03-30 13:00:00
2:30 PM,68.0,60.8,78,30.01,6.2,West,16.1,-,N/A,,Scattered Clouds,260,2013-03-30 13:30:00
3:00 PM,68.0,59.0,73,30.01,6.2,West,18.4,31.1,N/A,,Scattered Clouds,270,2013-03-30 14:00:00
3:30 PM,68.0,59.0,73,30.01,6.2,West,19.6,36.8,N/A,,Partly Cloudy,270,2013-03-30 14:30:00
4:00 PM,68.0,59.0,73,30.01,6.2,West,20.7,33.4,N/A,,Partly Cloudy,260,2013-03-30 15:00:00
4:30 PM,68.0,59.0,73,29.98,6.2,West,19.6,31.1,N/A,,Partly Cloudy,260,2013-03-30 15:30:00
5:00 PM,66.2,59.0,78,29.98,6.2,West,20.7,34.5,N/A,,Partly Cloudy,260,2013-03-30 16:00:00
5:30 PM,66.2,59.0,78,29.98,6.2,West,21.9,34.5,N/A,,Partly Cloudy,270,2013-03-30 16:30:00
6:00 PM,66.2,59.0,78,29.98,6.2,West,23.0,36.8,N/A,,Partly Cloudy,270,2013-03-30 17:00:00
6:30 PM,66.2,57.2,73,29.98,6.2,West,21.9,35.7,N/A,,Partly Cloudy,270,2013-03-30 17:30:00
7:00 PM,65,58,71,29.98,12,West,20.7,,,,Scattered Clouds,270,2013-03-30 18:00:00
7:00 PM,64.4,57.2,77,29.98,6.2,West,19.6,-,N/A,,Partly Cloudy,270,2013-03-30 18:00:00
7:30 PM,64.4,57.2,77,29.98,6.2,West,18.4,33.4,N/A,,Partly Cloudy,270,2013-03-30 18:30:00